Content
SEND FEEDBACK

Daily
Averages
Monthly
Summary
United States of America

HAMILTON, WASHINGTON


Home > North America > United States > Washington
Elevation: 585 feet     Latitude: 48 32N     Longitude: 121 45W

WEATHER
 
SELECT A DAY
Number of Records: 273,863;   Date Range: 5/6/03 - 8/13/14
 
SHARE

PRINT THIS DATA

[ ← Previous Day ]
WEATHER ALMANAC - JANUARY 23, 2013
[ Next Day → ]
[ °C ]   °F
Weather ElementAverageHighLow
Temperature40.4 °F48.2 °F (11:55 am)33.8 °F (12:35 am)
Dewpoint39.9 °F46.4 °F (2:15 pm)33.8 °F (12:35 am)
Humidity98.1 %100 % (12:35 am)81 % (10:55 am)
Barometer29.93 in30.14 in (11:55 pm)29.82 in (12:55 pm)
Wind Speed6.1 mph12.7 mph (1:15 pm)
Wind Gust19.6 mph (12:55 pm)
Weather ElementAverage
Visibility7.8 mi
Wind DirectionSE (136.3 °)

Weather ElementTotal
Precipitation0.24 in
Heating Degree Days24 (Base 65)
Averaged from 67 records on January 23, 2013
WEATHER CONDITIONS BREAKOUT
WIND DIRECTION BREAKOUT
WEATHER BY HOUR - JANUARY 23, 2013
[ °C ]   °F
Local TimeTemperatureDewpointHumidityBarometerVisibilityWind DirectionWind SpeedGust SpeedPrecipitationEventsConditions
12:35 AM33.8 °F33.8 °F100 %29.94 in3.0 miCalm0.00 inMostly Cloudy
12:55 AM33.8 °F33.8 °F100 %29.94 in5.0 miCalm0.00 inOvercast
1:15 AM33.8 °F33.8 °F100 %29.92 in5.0 miNorth (360°)4.6 mph0.00 inScattered Clouds
1:35 AM33.8 °F33.8 °F100 %29.95 in6.0 miSSW (210°)4.6 mph0.00 inClear
1:55 AM33.8 °F33.8 °F100 %29.94 in7.0 miNorth (360°)3.5 mph0.00 inScattered Clouds
2:15 AM35.6 °F35.6 °F100 %29.98 in8.0 miSouth (170°)6.9 mph0.00 inMostly Cloudy
2:35 AM35.6 °F35.6 °F100 %29.93 in9.0 miCalm0.00 inOvercast
2:55 AM35.6 °F35.6 °F100 %29.94 in7.0 miSSW (210°)3.5 mph0.00 inOvercast
3:15 AM35.6 °F35.6 °F100 %29.94 in5.0 miCalm0.00 inMostly Cloudy
3:35 AM35.6 °F35.6 °F100 %29.96 in7.0 miCalm0.00 inPartly Cloudy
3:55 AM35.6 °F35.6 °F100 %29.95 in7.0 miCalm0.00 inClear
4:15 AM35.6 °F35.6 °F100 %29.96 in6.0 miENE (70°)3.5 mph0.00 inClear
4:55 AM35.6 °F35.6 °F100 %29.94 in10.0 miENE (70°)6.9 mph0.00 inPartly Cloudy
5:15 AM35.6 °F35.6 °F100 %29.93 in10.0 miEast (80°)8.1 mph0.00 inPartly Cloudy
5:35 AM37.4 °F37.4 °F100 %29.91 in10.0 miEast (80°)5.8 mph0.00 inScattered Clouds
5:55 AM37.4 °F37.4 °F100 %29.89 in10.0 miENE (60°)9.2 mph0.00 inScattered Clouds
6:15 AM37.4 °F37.4 °F100 %29.89 in10.0 miENE (70°)6.9 mph0.00 inMostly Cloudy
6:35 AM39.2 °F37.4 °F93 %29.88 in10.0 miNE (50°)3.5 mph0.00 inOvercast
6:55 AM39.2 °F37.4 °F93 %29.87 in10.0 miENE (60°)3.5 mph0.00 inOvercast
7:15 AM39.2 °F39.2 °F100 %29.88 in10.0 miSSE (150°)3.5 mph0.00 inOvercast
7:35 AM37.4 °F37.4 °F100 %29.87 in10.0 miCalm0.00 inOvercast
7:55 AM39.2 °F39.2 °F100 %29.86 in10.0 miENE (60°)5.8 mph0.00 inOvercast
8:15 AM39.2 °F39.2 °F100 %29.86 in10.0 miCalm0.00 inOvercast
8:35 AM37.4 °F37.4 °F100 %29.86 in10.0 miCalm0.00 inMostly Cloudy
9:15 AM37.4 °F37.4 °F100 %29.87 in9.0 miCalm0.00 inPartly Cloudy
9:35 AM39.2 °F39.2 °F100 %29.88 in10.0 miCalm0.00 inScattered Clouds
9:55 AM39.2 °F39.2 °F100 %29.88 in8.0 miSSW (200°)3.5 mph0.00 inMostly Cloudy
10:15 AM42.8 °F39.2 °F87 %29.88 in8.0 miCalm0.00 inMostly Cloudy
10:35 AM42.8 °F39.2 °F87 %29.87 in8.0 miSE (140°)6.9 mph0.00 inOvercast
10:55 AM44.6 °F39.2 °F81 %29.87 in8.0 miSE (130°)6.9 mph0.00 inOvercast
11:15 AM44.6 °F42.8 °F93 %29.85 in4.0 miESE (120°)11.5 mph0.00 inOvercast
11:35 AM46.4 °F44.6 °F93 %29.85 in10.0 miSE (130°)11.5 mph17.3 mph0.00 inMostly Cloudy
11:55 AM48.2 °F44.6 °F87 %29.86 in10.0 miSSE (150°)11.5 mph0.00 inMostly Cloudy
12:15 PM46.4 °F44.6 °F93 %29.85 in10.0 miSSE (150°)11.5 mph17.3 mph0.00 inMostly Cloudy
12:35 PM46.4 °F44.6 °F93 %29.83 in10.0 miSE (140°)11.5 mph16.1 mph0.00 inMostly Cloudy
12:55 PM46.4 °F44.6 °F93 %29.82 in10.0 miSE (140°)11.5 mph19.6 mph0.00 inMostly Cloudy
1:15 PM46.4 °F44.6 °F93 %29.82 in10.0 miSE (140°)12.7 mph18.4 mph0.00 inOvercast
1:35 PM46.4 °F44.6 °F93 %29.83 in10.0 miSouth (170°)6.9 mph17.3 mph0.00 inOvercast
1:55 PM46.4 °F44.6 °F93 %29.83 in7.0 miSSE (160°)6.9 mph0.00 inOvercast
2:15 PM46.4 °F46.4 °F100 %29.84 in4.0 miSSW (210°)9.2 mph0.00 inOvercast
2:35 PM42.8 °F42.8 °F100 %29.84 in7.0 miSouth (190°)5.8 mph0.01 inOvercast
2:55 PM42.8 °F42.8 °F100 %29.85 in5.0 miSSW (200°)6.9 mph0.02 inOvercast
3:15 PM42.8 °F42.8 °F100 %29.87 in4.0 miSW (230°)8.1 mph0.02 inOvercast
3:35 PM42.8 °F42.8 °F100 %29.88 in5.0 miSSW (210°)10.4 mph0.03 inMostly Cloudy
3:55 PM42.8 °F42.8 °F100 %29.89 in4.0 miSSW (210°)11.5 mph16.1 mph0.06 inOvercast
4:15 PM42.8 °F42.8 °F100 %29.90 in3.0 miSSW (200°)9.2 mph0.02 inOvercast
4:35 PM41.0 °F41.0 °F100 %29.91 in4.0 miSouth (190°)6.9 mph0.03 inOvercast
5:15 PM41.0 °F41.0 °F100 %29.92 in6.0 miSouth (180°)5.8 mph0.01 inOvercast
5:35 PM41.0 °F41.0 °F100 %29.94 in5.0 miSouth (180°)5.8 mph0.01 inOvercast
5:55 PM41.0 °F41.0 °F100 %29.94 in7.0 miSouth (180°)6.9 mph0.01 inOvercast
6:15 PM41.0 °F41.0 °F100 %29.94 in9.0 miSouth (170°)8.1 mph0.00 inOvercast
6:35 PM41.0 °F41.0 °F100 %29.94 in10.0 miSouth (180°)6.9 mph0.00 inMostly Cloudy
6:55 PM41.0 °F41.0 °F100 %29.95 in10.0 miSouth (180°)6.9 mph0.00 inMostly Cloudy
7:15 PM41.0 °F41.0 °F100 %29.97 in10.0 miSouth (190°)6.9 mph0.00 inOvercast
7:35 PM41.0 °F41.0 °F100 %29.98 in10.0 miSouth (190°)8.1 mph0.00 inOvercast
7:55 PM41.0 °F41.0 °F100 %29.99 in8.0 miSouth (190°)8.1 mph0.00 inOvercast
8:15 PM41.0 °F41.0 °F100 %30.00 in7.0 miSSE (160°)8.1 mph0.00 inOvercast
8:35 PM41.0 °F41.0 °F100 %30.02 in5.0 miSouth (190°)8.1 mph0.01 inOvercast
8:55 PM41.0 °F41.0 °F100 %30.03 in5.0 miSouth (190°)8.1 mph0.01 inOvercast
9:15 PM41.0 °F41.0 °F100 %30.05 in9.0 miSouth (180°)9.2 mph0.00 inOvercast
9:55 PM41.0 °F41.0 °F100 %30.06 in8.0 miSouth (170°)9.2 mph0.00 inOvercast
10:15 PM42.8 °F42.8 °F100 %30.08 in9.0 miSouth (180°)9.2 mph0.00 inOvercast
10:35 PM42.8 °F42.8 °F100 %30.09 in9.0 miSouth (190°)5.8 mph0.00 inOvercast
10:55 PM42.8 °F42.8 °F100 %30.10 in8.0 miSSE (160°)8.1 mph0.00 inOvercast
11:15 PM42.8 °F42.8 °F100 %30.11 in8.0 miSSW (210°)6.9 mph0.00 inOvercast
11:35 PM42.8 °F42.8 °F100 %30.12 in8.0 miSSW (200°)4.6 mph0.00 inMostly Cloudy
11:55 PM41.0 °F41.0 °F100 %30.14 in8.0 miSouth (190°)4.6 mph0.00 inOvercast
Hourly data recorded from KBVS, located miles away from Hamilton, Washington







STORIES FROM OUR PARTNERS